sat.trackr.live / text

‹ back to catalog

ONEWEB-0180

NORAD 48213 · 2021-031D

PAYLOAD ACTIVE UNKNOWN

§ Identity

Operator
Country
UK
Launch date
2021-04-25
Launch site
VOSTO
Launch vehicle
Mass (kg)
RCS (m²)

Purposes: comms

External: N2YO · Heavens-Above · Gunter

§ Orbital elements

Epoch: 2026-09-19T23:58:03.931104Z

Period
109.55 min
Inclination
87.8901°
Eccentricity
0.0001501
Mean motion
13.14504329 rev/d
Perigee alt
1,204.6 km
Apogee alt
1,206.9 km
Semi-major
7,583.9 km
B*
2.4876e-4
RAAN
270.7935°
Arg perigee
87.7769°
Mean anomaly
272.3532°
Rev number
26,067

§ Raw data

ONEWEB-01801 48213U 21031D   26262.99865661  .00000105  00000+0  24876-3 0  99982 48213  87.8901 270.7935 0001501  87.7769 272.3532 13.14504329260674

JSON: /api/v1/satellites/48213 · /tle

For live sub-satellite position, see the globe view (requires WebGL).

§ Visibility from observer

Set your observer location to see the next 7 days of passes ≥ 10°. The values pass through the URL so the page stays shareable.

No JS? Fill the form by hand. The geolocation button needs JavaScript.